SCP
0 0 0 0 0 0 0 0 0 0 0 0 0 0 0 0 0 0 0 0 0 1 1 1 1 1 1 1 1 1 1 1 1 1 1 1 1 0 0 0 0 0 0
0 0 0 0 0 0 0 0 0 0 0 0 0 0 0 0 0 0 0 0 0 0 1 1 1 1 1 1 1 1 1 1 1 1 1 1 1 1 0 0 0 0 0
0 0 0 0 0 0 0 0 0 0 0 0 0 0 0 0 0 0 0 0 0 0 0 1 1 1 1 1 1 1 1 1 1 1 1 1 1 1 0 1 1 0 0
0 0 0 0 0 0 0 0 0 0 0 0 0 0 0 0 0 0 0 0 0 0 0 0 1 1 1 1 1 1 1 1 2 1 1 1 1 1 1 0 1 0 0
1 0 0 0 0 0 0 0 0 0 0 0 0 0 0 0 0 0 0 0 0 0 0 0 0 1 1 1 1 1 1 2 2 1 1 1 1 1 1 0 0 0 0
1 1 0 0 0 0 0 0 0 0 0 0 0 0 0 0 0 0 0 0 0 0 0 0 0 1 1 1 1 1 2 2 1 1 1 2 2 1 1 1 0 0 1
1 1 1 0 0 0 0 0 0 0 0 0 0 0 0 0 0 0 0 0 0 0 0 0 0 1 1 1 1 1 2 1 1 1 1 2 1 1 1 1 1 1 1
1 1 1 0 0 0 0 0 0 0 0 0 0 0 0 0 0 0 0 0 0 0 0 0 1 1 1 1 1 1 1 1 1 1 1 1 1 1 1 1 1 1 1
1 1 1 0 0 0 0 0 0 0 0 0 0 0 0 0 0 0 0 0 0 0 0 0 1 1 1 1 1 1 1 1 2 1 1 1 1 1 1 1 1 1 1
1 1 1 0 0 0 0 0 0 0 0 0 0 0 0 0 0 0 0 0 0 0 0 0 0 1 1 1 1 1 1 1 1 2 2 2 2 1 1 1 1 1 1
2 1 1 0 0 0 0 0 0 0 0 0 0 0 0 0 0 0 0 0 0 0 0 0 0 1 1 1 1 1 1 1 1 1 2 2 2 2 1 1 1 1 1
2 1 1 1 0 0 0 0 0 0 0 0 0 0 0 0 0 0 0 0 0 0 0 0 0 0 0 1 1 1 1 1 1 1 1 1 1 1 2 1 1 1 1
1 1 1 1 1 1 0 0 0 0 0 0 0 0 0 0 0 0 0 0 0 0 0 0 0 0 0 0 0 1 1 0 0 0 0 1 1 1 1 1 1 1 1
1 1 1 1 1 1 1 1 0 0 0 0 0 0 0 0 0 0 0 0 0 0 0 0 0 0 0 0 0 0 0 0 0 0 0 0 0 1 1 1 1 1 1
2 2 1 1 1 1 1 1 0 0 0 0 0 0 0 1 0 0 0 0 0 0 0 0 0 0 0 0 0 0 0 0 0 0 0 0 0 0 0 0 0 0 1
2 2 1 1 1 1 1 1 0 0 0 0 0 0 1 1 1 0 0 0 0 0 1 0 0 0 0 0 0 0 0 0 0 0 0 0 0 0 0 0 0 0 0
3 2 1 1 1 1 1 1 0 0 0 0 0 0 0 0 0 0 1 1 1 1 1 1 0 0 0 0 0 0 0 0 0 0 0 0 0 0 0 0 0 0 0
3 2 2 1 1 1 1 1 0 0 0 0 0 0 0 0 0 0 1 1 1 1 1 1 1 0 0 0 0 0 0 0 0 0 0 0 0 0 0 0 0 0 0
2 2 2 1 1 1 1 1 0 0 0 0 0 0 0 0 0 0 0 1 1 1 1 1 1 0 0 0 0 0 0 0 0 0 0 0 0 0 0 0 0 0 0
2 2 1 1 1 1 1 0 0 0 0 0 0 0 0 0 0 0 0 0 0 0 0 0 1 0 0 0 0 0 0 0 0 0 0 0 0 0 0 0 0 0 0
2 2 2 2 1 1 1 1 1 1 0 0 0 0 0 0 0 0 0 0 0 0 0 0 0 1 0 0 0 0 0 0 0 0 0 0 0 0 0 0 0 0 0
1 2 2 2 1 1 1 1 1 1 1 0 0 0 0 0 0 0 0 0 0 0 0 0 1 1 1 1 1 0 0 0 0 0 0 0 0 0 0 0 0 0 0
1 1 1 2 1 1 1 1 1 1 1 1 0 0 0 0 0 0 0 0 0 0 0 1 1 1 1 1 1 1 0 0 0 0 0 0 0 0 0 0 0 0 0
1 1 1 1 1 1 1 1 1 1 1 1 0 0 0 0 0 0 0 0 0 0 0 1 1 1 1 1 1 1 0 0 0 0 0 0 0 0 0 0 0 0 0
1 1 1 1 1 1 1 1 1 1 1 1 0 0 0 0 0 0 0 0 0 0 0 0 1 1 1 0 0 0 0 0 0 0 0 0 0 0 0 0 0 0 0
1 1 1 1 1 1 1 1 1 1 1 1 0 0 0 0 0 0 0 0 0 0 0 0 0 0 0 0 0 0 0 0 0 0 0 0 0 0 0 0 0 0 0
Wind_Speed
1 1 0 1 1 1 1 1 0 0 0 0 0 1 2 2 2 2 2 7 8 9 11 12 12 12 12 12 12 12 11 11 10 10 10 10 10 9 9 9 9 9 8
1 1 0 0 0 0 1 1 1 1 0 0 1 1 2 2 2 2 2 4 7 9 10 12 12 13 13 13 13 12 12 12 11 11 10 10 10 10 10 10 10 10 9
2 1 1 1 1 1 1 1 0 1 0 0 1 1 1 1 1 2 2 2 3 6 9 10 11 12 13 13 13 13 12 12 12 11 11 11 10 10 10 10 11 10 10
3 2 1 1 1 1 1 1 1 1 0 1 0 1 1 1 1 2 2 2 2 3 5 8 9 10 12 13 13 13 13 12 12 11 11 11 11 11 11 11 11 11 10
3 2 2 1 1 1 1 1 1 1 1 1 1 0 0 1 1 2 2 2 2 2 2 4 7 8 10 11 12 12 12 12 12 12 12 11 11 10 10 11 11 11 11
2 2 1 1 1 1 1 1 1 1 1 0 0 0 0 0 1 1 2 2 2 3 3 3 3 4 8 9 8 9 10 11 11 12 12 11 11 11 11 11 11 11 11
1 2 1 1 1 2 2 2 1 1 1 1 1 1 1 1 1 1 1 1 2 2 2 2 2 2 3 6 6 8 10 11 10 10 10 10 10 10 10 10 10 10 10
1 2 2 1 2 1 1 1 2 1 0 1 1 1 1 2 1 1 1 1 2 1 1 2 2 2 2 2 3 6 7 8 10 10 9 9 9 9 9 9 9 9 10
1 1 2 2 2 2 2 2 3 3 2 1 1 2 2 2 1 1 1 1 1 1 2 2 2 2 3 2 3 4 6 6 8 9 8 8 8 7 8 8 8 8 8
1 1 1 1 2 2 2 3 3 2 3 2 1 1 2 2 2 1 1 1 1 2 2 2 2 3 3 2 3 3 4 5 6 7 7 7 7 7 7 8 8 7 7
1 1 1 1 2 2 2 2 2 2 2 2 2 1 1 1 2 2 2 1 1 1 2 2 2 2 2 3 3 3 4 4 4 4 4 6 7 7 7 7 7 7 6
1 1 1 1 1 2 2 3 2 3 3 3 2 2 2 2 2 2 3 2 2 1 1 1 2 2 2 2 4 3 3 3 3 3 3 3 4 5 6 6 7 6 5
1 1 1 1 1 2 2 2 2 2 3 3 3 2 2 3 2 2 2 2 1 1 1 1 2 2 2 2 2 2 3 2 3 3 2 2 2 2 2 3 4 4 4
2 1 1 1 1 1 1 1 1 2 2 2 3 2 2 2 2 2 2 2 1 1 1 1 1 1 1 1 0 1 1 3 3 2 2 2 2 1 1 1 1 0 1
1 0 0 0 1 1 1 1 1 1 1 1 2 2 2 1 1 2 2 2 3 2 1 1 1 1 1 0 0 1 1 2 3 3 3 3 3 3 3 2 2 2 2
0 1 0 0 0 0 0 1 0 0 0 0 0 0 0 0 0 1 1 1 2 2 1 1 1 1 1 0 2 1 1 3 3 3 3 3 3 3 4 3 3 3 3
1 0 0 1 0 0 0 1 1 1 1 0 0 1 0 1 1 1 1 1 1 2 2 1 0 1 1 1 2 2 2 2 2 3 3 3 4 4 4 4 4 3 4
1 0 1 1 0 0 1 1 1 1 1 0 0 1 0 1 1 1 1 1 1 1 2 1 0 1 1 1 2 2 2 2 2 5 5 5 4 5 5 5 5 4 4
1 1 1 1 0 1 1 1 1 1 1 1 1 1 1 1 1 1 1 1 1 1 2 2 1 0 1 1 2 2 3 2 2 3 4 4 4 5 5 4 4 4 4
1 1 1 1 1 1 1 1 1 1 1 1 1 1 1 1 1 1 1 1 1 2 2 2 1 1 1 1 1 1 1 1 1 2 3 3 4 4 4 4 4 4 3
1 1 2 1 1 0 1 1 1 1 1 2 2 2 2 2 2 2 2 2 2 2 2 2 2 1 1 1 1 0 1 1 1 1 1 1 2 1 1 1 2 2 3
2 2 2 1 1 1 1 2 2 2 1 1 1 2 2 3 3 4 4 3 3 2 2 2 1 1 1 1 1 1 1 1 0 1 1 1 1 1 1 1 1 3 3
2 2 2 2 1 1 1 3 3 2 2 2 1 1 2 2 3 3 4 4 4 3 2 2 2 2 1 1 2 1 1 1 0 0 1 1 1 1 1 1 1 2 3
2 1 1 1 1 1 1 2 3 3 2 2 1 2 2 1 2 3 3 3 3 2 1 1 1 1 1 1 2 2 2 2 1 1 1 0 0 1 1 1 0 1 2
1 1 1 1 0 1 0 3 3 2 2 2 1 2 2 1 2 4 4 3 2 2 2 3 3 2 3 3 3 3 2 2 1 1 0 0 0 0 1 1 1 1 2
2 1 1 0 0 1 0 2 4 2 2 1 1 1 1 1 2 4 3 2 1 1 1 2 3 3 2 3 3 2 2 2 1 0 0 0 0 0 0 0 1 0 1
Wind_Direction
121 97 85 80 78 91 106 110 110 78 55 105 198 197 206 208 202 210 213 211 209 207 208 208 207 206 205 205 205 205 204 204 206 207 206 208 209 209 209 208 209 210 211
143 142 155 151 168 154 159 169 187 170 225 255 256 219 215 210 204 208 218 223 221 214 213 215 214 212 210 210 210 210 210 210 211 212 213 213 213 215 216 215 214 217 217
164 164 177 221 226 180 164 142 112 112 161 187 245 237 216 209 208 219 221 219 229 225 221 219 220 219 219 218 217 216 215 215 216 214 216 218 217 220 223 222 220 221 221
174 169 187 223 217 161 156 152 150 132 147 163 228 264 239 221 233 228 226 226 228 233 234 228 227 226 227 227 225 224 222 221 221 219 220 221 222 223 224 225 226 226 225
174 172 193 211 180 158 176 196 153 154 175 192 213 232 233 228 245 246 230 230 230 231 241 244 236 233 234 232 230 231 227 222 220 220 221 223 224 226 226 226 227 227 226
170 166 188 200 163 149 175 178 167 145 149 172 210 25 358 275 240 254 244 237 233 230 236 246 246 243 240 238 236 239 235 227 222 221 223 225 228 229 227 228 228 227 227
154 150 179 181 166 171 186 168 151 132 103 104 82 15 355 353 280 262 249 247 247 240 232 235 239 243 251 250 244 245 244 235 227 224 225 225 229 229 227 227 228 228 227
171 172 170 184 184 174 170 168 154 138 152 133 131 99 339 336 324 279 237 231 246 241 230 233 236 227 241 243 247 244 251 242 231 226 224 220 223 225 226 226 226 227 227
205 188 186 186 190 183 199 204 182 172 184 194 163 155 169 237 299 327 294 242 227 230 240 231 229 232 230 231 241 243 243 249 237 229 225 219 219 222 223 223 226 227 226
231 213 210 191 191 194 210 219 199 191 178 198 206 209 194 172 190 281 315 292 244 239 242 242 240 235 234 236 244 251 247 245 240 235 233 227 223 221 220 220 223 227 223
284 244 207 196 199 208 221 223 202 194 191 193 193 190 202 199 193 192 259 288 284 259 242 240 244 247 243 241 243 242 231 224 226 232 244 241 228 221 220 221 224 226 225
290 276 215 207 213 216 225 224 214 205 205 207 201 186 182 188 199 194 219 245 260 270 259 253 246 245 245 245 241 224 211 209 207 206 223 245 242 233 228 227 224 222 221
258 269 239 218 224 226 225 218 210 216 208 204 208 211 209 214 193 185 192 223 248 282 291 267 257 246 247 244 239 221 216 197 187 186 196 222 238 236 225 218 218 223 231
232 236 215 219 230 227 223 196 202 219 201 203 214 210 210 221 207 198 190 182 220 269 282 276 297 266 263 243 211 191 181 130 135 143 145 136 112 90 98 100 94 86 257
237 194 184 226 252 235 210 181 206 230 203 206 216 208 206 222 209 209 197 188 189 224 266 265 275 317 298 251 123 164 173 124 132 131 129 123 108 90 82 81 99 113 105
114 110 98 83 32 316 194 163 187 274 169 281 195 161 175 198 191 174 181 191 195 194 228 267 263 317 331 10 79 103 104 99 99 109 110 112 109 107 103 105 108 111 108
121 133 122 91 67 3 100 128 126 103 123 57 46 125 182 150 144 143 147 150 159 163 198 272 298 341 10 41 43 64 72 76 75 87 98 101 102 102 98 91 85 89 91
79 110 119 118 152 105 111 134 136 121 136 97 33 80 12 93 94 101 126 133 154 167 167 191 336 21 29 49 57 74 78 81 76 73 85 90 96 100 96 92 87 83 82
74 70 97 124 132 131 123 121 129 126 119 95 73 78 48 83 87 85 106 120 130 123 139 149 147 55 57 71 66 73 73 65 74 74 83 88 95 104 101 96 91 89 89
89 81 77 94 109 116 117 120 116 106 91 80 72 70 58 94 139 140 126 121 119 108 114 125 117 92 78 67 82 89 73 55 53 55 63 72 81 95 99 100 100 100 98
96 99 88 68 53 85 124 132 131 118 103 85 64 51 53 68 81 102 115 127 129 123 118 123 121 110 110 106 112 140 135 98 53 50 59 47 58 62 70 101 120 123 119
81 80 76 74 52 26 75 112 125 121 106 95 72 46 48 50 63 74 83 95 114 136 148 150 152 156 174 177 151 151 147 121 94 33 95 45 57 49 21 65 97 123 132
94 81 68 67 58 16 99 119 118 122 111 98 91 67 56 52 63 76 78 76 68 75 131 166 164 188 187 200 167 153 143 126 134 68 124 56 40 31 358 27 103 146 154
115 105 89 77 44 348 129 138 125 115 101 87 87 96 96 62 65 93 90 77 60 46 54 108 144 181 172 146 154 155 152 123 82 58 85 109 9 322 333 347 57 165 173
131 135 131 137 109 319 131 147 139 124 107 89 78 88 112 105 82 109 107 99 72 32 47 70 91 89 89 95 112 114 113 119 98 33 41 140 207 318 316 314 334 223 204
170 167 149 143 252 303 298 146 147 139 128 117 80 59 75 114 114 129 130 128 115 357 28 51 54 53 65 85 105 132 151 141 132 166 119 148 133 146 239 310 313 295 225